User: anonymous   Login
Location: Julian California
(33.0790°N, 116.6010°W)
Time: 05:33:15
(UTC-08:00)
Language:

Cosmos 1603 - Orbit

View from above orbital plane
View from above orbital plane
View from above satellite
View from above satellite

Ground track
Ground track

The orbit data is extracted from the following two-line orbital elements,

1 15333U 84106A   19053.91995767 +.00000206 +00000-0 +13315-3 0  9999
2 15333 071.0224 243.0096 0019822 343.9643 016.0849 14.14080664775068
Epoch (UTC): 22 February 2019 22:04:44
Eccentricity: 0.0019822
inclination: 71.0224°
perigee height: 831 km
apogee height: 860 km
right ascension of ascending node: 243.0096°
argument of perigee: 343.9643°
revolutions per day: 14.14080664
mean anomaly at epoch: 16.0849°
orbit number at epoch: 77506

The dashed part of the orbit path shows where the satellite is in the earth's shadow,  

DLR